"Pseudo-MPEC" for CD7QUQ2

Created 2025 Apr 29 14:31:03 UT using Find_Orb

Click here for an explanation of pseudo-MPECs

 
 Astrometry: 
     CD7QUQ2*1C2025 04 22.34080814 34 48.940-11 53 26.20   ~4M92 21.20GVNEOCPG96
     CD7QUQ2 1C2025 04 22.35194914 34 48.212-11 53 14.35   ~4M92 21.90GVNEOCPG96
     CD7QUQ2 1C2025 04 22.35752914 34 47.820-11 53 08.12   ~4M92 21.39GVNEOCPG96
     CD7QUQ2 !C2025 04 22.38634 14 34 46.08 -11 52 36.4    ~4M9l 20.9 GVNEOCP673
     CD7QUQ2 !C2025 04 22.39089 14 34 45.77 -11 52 31.5    ~4M9l       VNEOCP673
     CD7QUQ2 KC2025 04 22.44039914 34 42.510-11 51 36.18   ~4MBH 21.53GVNEOCPI52
     CD7QUQ2 KC2025 04 22.44553414 34 42.200-11 51 30.28   ~4MBH 21.60GVNEOCPI52
     CD7QUQ2 KC2025 04 22.45065614 34 41.873-11 51 24.80   ~4MBH 21.70GVNEOCPI52
     CD7QUQ2 |C2025 04 23.17024014 33 58.090-11 37 59.40   ~4N5l 20.7 GVNEOCP807
     CD7QUQ2 |C2025 04 23.17574014 33 57.720-11 37 53.60   ~4N5l 20.7 GVNEOCP807
     CD7QUQ2 |C2025 04 23.18124014 33 57.360-11 37 47.80   ~4N5l 21.2 GVNEOCP807
     CD7QUQ2 KC2025 04 23.23503914 33 54.01 -11 36 57.3    ~4NFV 22.2 GVNEOCPH21
     CD7QUQ2 KC2025 04 23.24342114 33 53.47 -11 36 47.8    ~4NFV 21.1 GVNEOCPH21
     CD7QUQ2  C2025 04 23.36065014 33 46.100-11 34 36.90   ~4NA2 22.2 RVNEOCP691
     CD7QUQ2  C2025 04 23.37565014 33 45.120-11 34 20.30   ~4NA2 22.0 RVNEOCP691
     CD7QUQ2 KC2025 04 24.32988314 32 46.176-11 16 43.32   ~4O8H 21.64GVNEOCPI52
     CD7QUQ2 KC2025 04 24.33451614 32 45.870-11 16 37.96   ~4O8H 21.22GVNEOCPI52
     CD7QUQ2 KC2025 04 25.31712914 31 44.778-10 58 29.60   ~4P8V 21.80GVNEOCPI52
     CD7QUQ2 KC2025 04 25.32177214 31 44.526-10 58 24.56   ~4P8V 21.72GVNEOCPI52
     CD7QUQ2 KC2025 04 25.32641814 31 44.209-10 58 18.98   ~4P8V 21.53GVNEOCPI52
     CD7QUQ2 KC2025 04 25.33105214 31 43.914-10 58 13.76   ~4P8V       VNEOCPI52

Station data:
(673) Table Mountain Observatory, Wrightwood  (N34.381485 W117.682170)
   US/California.  Observers J. Chesley, J. Pittichova. Measurer W. M. Owen
   Jr. 0.61-m f/16 reflector + CCD.
(691) Steward Observatory, Kitt Peak - Spacewatch  (N31.962174 W111.600327)
   US/Arizona.  Observer J. V. Scotti. 0.9-m f/3 reflector + CCD.
(807) Cerro Tololo Observatory, La Serena  (S30.169133 W70.805900)  Chile.
   Observer R. Holmes. 0.61-m f/6.5 astrograph + CCD.
(G96) Mt. Lemmon Survey  (N32.442729 W110.788720)  US/Arizona.  Observer E.
   J. Christensen.  + 10K CCD.
(H21) Astronomical Research Observatory, Westfield  (N39.483054 W87.968270)
   US/Illinois.  Observer R. Holmes. Measurers S. Foglia, L. Buzzi, T.
   Linder, R. Holmes. 0.40-m f/5.32 astrograph + CCD.
(I52) Steward Observatory, Mt. Lemmon Station  (N32.442570 W110.788920)
   US/Arizona.  Observers T. A. Pruyne, B. M. Africano, E. J. Christensen, G.
   A. Farneth, D. C. Fuls, A. R. Gibbs, A. D. Grauer, H. Gröller, J. A.
   Johnson, R. A. Kowalski, S. M. Larson, G. J. Leonard, D. Rankin, R. L.
   Seaman, F. C. Shelly, K. W. Wierzchoś. 1.0-m prime focus + CCD.

Orbital elements:  CD7QUQ2
   Perihelion 2024 Jun 10.93424 +/- 10.9 TT = 22:25:18 (JD 2460472.43424)
Epoch 2025 Apr 25.0 TT = JDT 2460790.5   Earth MOID: 0.7562      AutoNEOCP
M 117.15520380 +/- 3.6              (J2000 ecliptic)
n   0.36833641 +/- 0.0032           Peri.  236.98220 +/- 3.1
a   1.92740482 +/- 0.0111           Node   211.70315 +/- 0.14
e   0.1213062 +/- 0.00553           Incl.   19.61417 +/- 0.58
P   2.676/977.349d         H 19.76  G  0.15   U  8.9
q 1.69359861 +/- 0.00641    Q 2.16121104 +/- 0.022
From 21 observations 2025 Apr. 22-25; mean residual 0".21
Residuals in arcseconds: 
250422 G96  .29+  .43+    250422 I52  .13-  .15-    250423 691  .04-  .16+    
250422 G96  .12+  .06-    250423 807  .14+  .27+    250424 I52  .18+  .21-    
250422 G96  .36-  .01-    250423 807  .07-  .01-    250424 I52  .11+  .01+    
250422 673  .43+  .00     250423 807  .14-  .29-    250425 I52  .51-  .14-    
250422 673  .17+  .14-    250423 H21  .15-  .27-    250425 I52  .25+  .24-    
250422 I52  .36-  .11-    250423 H21  .15-  .04-    250425 I52  .05+  .20+    
250422 I52  .11-  .07+    250423 691  .10+  .21+    250425 I52  .16+  .28+    

Ephemerides (geocentric):
Date (UTC) HH   RA             Dec           delta  r     elong  mag " sig PA
---- --------  ------------   ------------  ------ ------ -----  --- --------
2025 04 29 15  14 27 16.382   -09 39 24.24  1.0548 2.0601 175.1 21.7 1.36  29
2025 04 29 16  14 27 13.798   -09 38 38.85  1.0549 2.0601 175.1 21.7 1.38  29
2025 04 29 17  14 27 11.215   -09 37 53.47  1.0549 2.0602 175.0 21.7 1.40  28
2025 04 29 18  14 27 08.632   -09 37 08.09  1.0550 2.0602 175.0 21.7 1.42  28
2025 04 29 19  14 27 06.049   -09 36 22.73  1.0551 2.0603 175.0 21.7 1.45  28
2025 04 29 20  14 27 03.467   -09 35 37.38  1.0551 2.0603 175.0 21.7 1.47  27
2025 04 29 21  14 27 00.885   -09 34 52.05  1.0552 2.0604 174.9 21.7 1.49  27
2025 04 29 22  14 26 58.305   -09 34 06.72  1.0552 2.0604 174.9 21.7 1.51  27
2025 04 29 23  14 26 55.724   -09 33 21.41  1.0553 2.0605 174.9 21.7 1.54  26
2025 04 30 00  14 26 53.144   -09 32 36.11  1.0554 2.0605 174.9 21.7 1.56  26
2025 04 30 01  14 26 50.565   -09 31 50.82  1.0554 2.0606 174.8 21.7 1.59  26
2025 04 30 02  14 26 47.986   -09 31 05.54  1.0555 2.0606 174.8 21.7 1.61  25
2025 04 30 03  14 26 45.408   -09 30 20.27  1.0555 2.0607 174.8 21.7 1.63  25
2025 04 30 04  14 26 42.830   -09 29 35.02  1.0556 2.0607 174.7 21.7 1.66  25
2025 04 30 05  14 26 40.253   -09 28 49.78  1.0557 2.0608 174.7 21.7 1.68  25
2025 04 30 06  14 26 37.677   -09 28 04.55  1.0557 2.0608 174.7 21.7 1.71  24
2025 04 30 07  14 26 35.101   -09 27 19.34  1.0558 2.0609 174.6 21.7 1.73  24
2025 04 30 08  14 26 32.526   -09 26 34.14  1.0559 2.0609 174.6 21.7 1.76  24
2025 04 30 09  14 26 29.951   -09 25 48.95  1.0559 2.0610 174.6 21.7 1.78  23
2025 04 30 10  14 26 27.377   -09 25 03.77  1.0560 2.0610 174.5 21.7 1.81  23
2025 04 30 11  14 26 24.804   -09 24 18.61  1.0561 2.0611 174.5 21.7 1.84  23
2025 04 30 12  14 26 22.231   -09 23 33.46  1.0561 2.0611 174.5 21.7 1.86  22
2025 04 30 13  14 26 19.659   -09 22 48.32  1.0562 2.0612 174.4 21.7 1.89  22
2025 04 30 14  14 26 17.087   -09 22 03.19  1.0563 2.0612 174.4 21.7 1.92  22
2025 04 30 15  14 26 14.517   -09 21 18.08  1.0563 2.0613 174.4 21.7 1.94  21
2025 04 30 16  14 26 11.946   -09 20 32.98  1.0564 2.0613 174.3 21.7 1.97  21
2025 04 30 17  14 26 09.377   -09 19 47.90  1.0565 2.0614 174.3 21.7 2.00  21
2025 04 30 18  14 26 06.808   -09 19 02.83  1.0565 2.0614 174.3 21.7 2.03  21
2025 04 30 19  14 26 04.240   -09 18 17.77  1.0566 2.0614 174.2 21.7 2.05  20
2025 04 30 20  14 26 01.673   -09 17 32.73  1.0567 2.0615 174.2 21.7 2.08  20
2025 04 30 21  14 25 59.106   -09 16 47.70  1.0568 2.0615 174.2 21.7 2.11  20
2025 04 30 22  14 25 56.540   -09 16 02.68  1.0568 2.0616 174.1 21.8 2.14  19
2025 04 30 23  14 25 53.975   -09 15 17.68  1.0569 2.0616 174.1 21.8 2.17  19
2025 05 01 00  14 25 51.410   -09 14 32.69  1.0570 2.0617 174.0 21.8 2.20  19
2025 05 01 01  14 25 48.846   -09 13 47.71  1.0570 2.0617 174.0 21.8 2.23  19
2025 05 01 02  14 25 46.283   -09 13 02.75  1.0571 2.0618 174.0 21.8 2.26  18
2025 05 01 03  14 25 43.721   -09 12 17.81  1.0572 2.0618 173.9 21.8 2.29  18
2025 05 01 04  14 25 41.159   -09 11 32.87  1.0573 2.0619 173.9 21.8 2.32  18
2025 05 01 05  14 25 38.598   -09 10 47.96  1.0573 2.0619 173.9 21.8 2.35  17
2025 05 01 06  14 25 36.038   -09 10 03.05  1.0574 2.0620 173.8 21.8 2.38  17
2025 05 01 07  14 25 33.479   -09 09 18.16  1.0575 2.0620 173.8 21.8 2.41  17
2025 05 01 08  14 25 30.920   -09 08 33.29  1.0576 2.0621 173.7 21.8 2.44  17
2025 05 01 09  14 25 28.362   -09 07 48.43  1.0576 2.0621 173.7 21.8 2.48  16
2025 05 01 10  14 25 25.805   -09 07 03.58  1.0577 2.0622 173.7 21.8 2.51  16
2025 05 01 11  14 25 23.249   -09 06 18.75  1.0578 2.0622 173.6 21.8 2.54  16
2025 05 01 12  14 25 20.693   -09 05 33.94  1.0579 2.0623 173.6 21.8 2.57  16
2025 05 01 13  14 25 18.139   -09 04 49.14  1.0580 2.0623 173.5 21.8 2.61  15
2025 05 01 14  14 25 15.585   -09 04 04.35  1.0580 2.0624 173.5 21.8 2.64  15